Tracking 25709 objects as of 23-May-2022
HD Live streaming from Space Station
objects crossing your sky now

FREGAT R/B

Track FREGAT R/B now!


NORAD ID: 37345
Int'l Code: 2011-001B
Perigee: 34,420.8 km
Apogee: 35,777.9 km
Inclination: 7.4 °
Period: 1,400.8 minutes
Semi major axis: 41470 km
RCS: 8.569 m2 (large)
Launch date: January 20, 2011
Source: Commonwealth of Independent States (former USSR) (CIS)
Launch site: TYURATAM MISSILE AND SPACE COMPLEX (TTMTR)

Note: This is a ROCKET BODY
aabbcc
Your satellite tracking list
Your tracking list is empty




NASA's NSSDC Master Catalog

Two Line Element Set (TLE):
1 37345U 11001B   22142.27363417 -.00000271  00000-0  00000-0 0  9990
2 37345   7.3976  53.6829 0163616  33.0774 172.9782  1.02800715 45117
Source of the keplerian elements: AFSPC